sat.trackr.live / text

‹ back to catalog

STARLINK-1350

NORAD 45535 · 2020-025E

PAYLOAD ACTIVE UNKNOWN

§ Identity

Operator
Country
US
Launch date
2020-04-22
Launch site
AFETR
Launch vehicle
Mass (kg)
RCS (m²)

Purposes: comms

External: N2YO · Heavens-Above · Gunter

§ Orbital elements

Epoch: 2026-05-25T03:02:59.506368Z

Period
93.63 min
Inclination
53.0720°
Eccentricity
0.0001673
Mean motion
15.37895619 rev/d
Perigee alt
451.2 km
Apogee alt
453.5 km
Semi-major
6,830.5 km
B*
2.5609e-4
RAAN
33.6441°
Arg perigee
75.8386°
Mean anomaly
284.2803°
Rev number
33,791

§ Raw data

STARLINK-13501 45535U 20025E   26145.12707762  .00009302  00000+0  25609-3 0  99992 45535  53.0720  33.6441 0001673  75.8386 284.2803 15.37895619337910

JSON: /api/v1/satellites/45535 · /tle

For live sub-satellite position, see the globe view (requires WebGL).

§ Visibility from observer

Set your observer location to see the next 7 days of passes ≥ 10°. The values pass through the URL so the page stays shareable.

No JS? Fill the form by hand. The geolocation button needs JavaScript.